Hobbs, NM

3:34 AM MDT on April 26, 2017 (GMT -0600)
Lea County Regional

Weather History for KHOB - June, 2013

Change the Weather History Date:

Sunday, June 23, 2013

  Actual Average Record
Temperature  
Mean Temperature 84 °F -  
Max Temperature 98 °F 91 °F 103 °F (1951)
Min Temperature 71 °F 65 °F 59 °F (1949)
Cooling Degree Days 20    
Growing Degree Days 34 (Base 50)    
Moisture  
Dew Point 52 °F    
Average Humidity 38    
Maximum Humidity 53    
Minimum Humidity 12    
Precipitation  
Precipitation 0.00 in - - ()
Sea Level Pressure  
Sea Level Pressure 29.92 in    
Wind  
Wind Speed 16 mph (SSE)    
Max Wind Speed 25 mph    
Max Gust Speed 36 mph    
Visibility 10 miles    
Events      
Averages and records for this station are not official NWS values.
T = Trace of Precipitation, MM = Missing Value Source: NWS Daily Summary

Daily Weather History Graph

Daily Weather History Graph

Search for Another Location

Airport or City:

Trip Planner

Search our weather history database for the weather conditions in past years. The results will help you decide how hot, cold, wet, or windy it might be!

Date:

Astronomy

Jun. 23, 2013 Rise Set
Actual Time 5:46 AM MDT 8:04 PM MDT
Civil Twilight 5:17 AM MDT 8:32 PM MDT
Nautical Twilight 4:42 AM MDT 9:07 PM MDT
Astronomical Twilight 4:04 AM MDT 9:45 PM MDT
Moon 8:23 PM MDT (6/23) 6:02 AM MDT (6/23)
Length of Visible Light 15h 15m
Length of Day
14h 18m
Full, 100% of the Moon is Illuminated
Jun 23
Full
Jun 29
Last Quarter
Jul 8
New
Jul 15
First Quarter
Jul 22
Full

Hourly Weather History & Observations

Time (MDT) Temp. Heat Index Dew Point Humidity Pressure Visibility Wind Dir Wind Speed Gust Speed Precip Events Conditions
12:15 AM 75.2 °F - 55.4 °F 50% 29.96 in 10.0 mi SSE 17.3 mph 26.5 mph N/A   Clear
12:35 AM 75.2 °F - 55.4 °F 50% 29.96 in 10.0 mi SSE 18.4 mph - N/A   Clear
12:55 AM 75.2 °F - 55.4 °F 50% 29.96 in 10.0 mi SSE 16.1 mph - N/A   Clear
1:15 AM 73.4 °F - 55.4 °F 53% 29.95 in 10.0 mi SSE 16.1 mph 24.2 mph N/A   Clear
1:35 AM 73.4 °F - 55.4 °F 53% 29.95 in 10.0 mi SSE 16.1 mph 21.9 mph N/A   Clear
1:55 AM 73.4 °F - 55.4 °F 53% 29.95 in 10.0 mi SSE 15.0 mph 20.7 mph N/A   Clear
2:15 AM 73.4 °F - 55.4 °F 53% 29.95 in 10.0 mi SSE 13.8 mph - N/A   Clear
2:35 AM 73.4 °F - 53.6 °F 50% 29.95 in 10.0 mi SSE 13.8 mph - N/A   Clear
2:55 AM 73.4 °F - 53.6 °F 50% 29.95 in 10.0 mi SSE 12.7 mph - N/A   Clear
3:15 AM 71.6 °F - 53.6 °F 53% 29.94 in 10.0 mi SSE 13.8 mph - N/A   Clear
3:35 AM 71.6 °F - 53.6 °F 53% 29.93 in 10.0 mi SSE 12.7 mph - N/A   Clear
3:55 AM 71.6 °F - 53.6 °F 53% 29.93 in 10.0 mi SSE 16.1 mph - N/A   Clear
4:15 AM 71.6 °F - 53.6 °F 53% 29.93 in 10.0 mi SSE 16.1 mph 21.9 mph N/A   Clear
4:35 AM 71.6 °F - 53.6 °F 53% 29.93 in 10.0 mi SSE 11.5 mph 17.3 mph N/A   Clear
4:55 AM 71.6 °F - 51.8 °F 50% 29.93 in 10.0 mi SSE 11.5 mph - N/A   Clear
5:50 AM 71.6 °F - 51.8 °F 50% 29.94 in 10.0 mi SSE 9.2 mph - N/A   Clear
6:50 AM 71.6 °F - 53.6 °F 53% 29.95 in 10.0 mi SSE 10.4 mph - N/A   Clear
7:50 AM 77.0 °F - 53.6 °F 44% 29.96 in 10.0 mi South 13.8 mph 19.6 mph N/A   Clear
8:50 AM 80.6 °F 80.3 °F 53.6 °F 39% 29.97 in 10.0 mi South 13.8 mph 19.6 mph N/A   Clear
9:50 AM 84.2 °F 82.8 °F 53.6 °F 35% 29.96 in 10.0 mi South 12.7 mph 17.3 mph N/A   Clear
10:50 AM 89.6 °F - 50.0 °F 26% 29.95 in 10.0 mi SSW 11.5 mph - N/A   Clear
11:50 AM 93.2 °F - 44.6 °F 19% 29.94 in 10.0 mi SW 8.1 mph - N/A   Clear
12:50 PM 96.8 °F - 39.2 °F 14% 29.93 in 10.0 mi Variable 5.8 mph - N/A   Clear
1:50 PM 98.6 °F - 37.4 °F 12% 29.91 in 10.0 mi Variable 6.9 mph - N/A   Clear
2:50 PM 98.6 °F - 39.2 °F 13% 29.88 in 10.0 mi Variable 13.8 mph 19.6 mph N/A   Clear
3:50 PM 98.6 °F - 41.0 °F 14% 29.87 in 10.0 mi SSE 9.2 mph 19.6 mph N/A   Clear
4:50 PM 98.6 °F - 42.8 °F 15% 29.85 in 10.0 mi ESE 15.0 mph 19.6 mph N/A   Clear
5:45 PM 98.6 °F - 44.6 °F 16% 29.84 in 10.0 mi SE 13.8 mph - N/A   Clear
6:15 PM 96.8 °F - 44.6 °F 17% 29.85 in 10.0 mi SSE 11.5 mph 19.6 mph N/A   Clear
6:35 PM 96.8 °F - 44.6 °F 17% 29.85 in 10.0 mi SE 15.0 mph 23.0 mph N/A   Clear
6:55 PM 95.0 °F - 44.6 °F 18% 29.85 in 10.0 mi SE 16.1 mph - N/A   Clear
7:15 PM 93.2 °F - 44.6 °F 19% 29.86 in 10.0 mi SE 15.0 mph - N/A   Clear
7:35 PM 91.4 °F - 50.0 °F 24% 29.86 in 10.0 mi SE 21.9 mph 29.9 mph N/A   Clear
7:55 PM 89.6 °F 87.3 °F 53.6 °F 29% 29.87 in 10.0 mi SE 21.9 mph 26.5 mph N/A   Clear
8:15 PM 87.8 °F 86.1 °F 55.4 °F 33% 29.88 in 10.0 mi SE 23.0 mph 28.8 mph N/A   Clear
8:35 PM 86.0 °F 84.5 °F 55.4 °F 35% 29.89 in 10.0 mi SE 19.6 mph 28.8 mph N/A   Clear
8:55 PM 84.2 °F 83.0 °F 55.4 °F 37% 29.90 in 10.0 mi SE 20.7 mph 33.4 mph N/A   Clear
9:15 PM 84.2 °F 83.0 °F 55.4 °F 37% 29.91 in 10.0 mi SE 23.0 mph 29.9 mph N/A   Clear
9:35 PM 82.4 °F 82.0 °F 57.2 °F 42% 29.92 in 9.0 mi SE 24.2 mph 34.5 mph N/A   Clear
9:55 PM 82.4 °F 82.0 °F 57.2 °F 42% 29.93 in 10.0 mi SE 25.3 mph 33.4 mph N/A   Clear
10:15 PM 80.6 °F 81.1 °F 59.0 °F 48% 29.94 in 10.0 mi SE 24.2 mph 35.7 mph N/A   Clear
10:35 PM 80.6 °F 80.8 °F 57.2 °F 45% 29.95 in 10.0 mi SE 21.9 mph 32.2 mph N/A   Clear
10:55 PM 78.8 °F - 57.2 °F 47% 29.95 in 10.0 mi SSE 25.3 mph 32.2 mph N/A   Clear
11:15 PM 77.0 °F - 57.2 °F 50% 29.96 in 10.0 mi SSE 20.7 mph 27.6 mph N/A   Clear
11:35 PM 77.0 °F - 57.2 °F 50% 29.96 in 10.0 mi SE 16.1 mph 26.5 mph N/A   Clear
11:55 PM 77.0 °F - 57.2 °F 50% 29.97 in 10.0 mi SSE 17.3 mph 27.6 mph N/A   Clear